28-06-2022, 00:00:09,    191,    0.0,    9.3,   0.00,   0.00, 1015.2,   65.8, -999.0
28-06-2022, 00:00:19,    191,    0.0,    9.2,   0.00,   0.00, 1015.2,   65.9, -999.0
28-06-2022, 00:00:29,    192,    0.0,    9.2,   0.00,   0.00, 1015.2,   65.9, -999.0
28-06-2022, 00:00:38,    191,    0.0,    9.2,   0.00,   0.00, 1015.2,   65.9, -999.0
28-06-2022, 00:00:49,    191,    0.0,    9.2,   0.00,   0.00, 1015.2,   65.8, -999.0
28-06-2022, 00:00:59,    191,    0.0,    9.2,   0.00,   0.00, 1015.2,   65.9, -999.0
28-06-2022, 00:01:08,    191,    0.0,    9.2,   0.00,   0.00, 1015.2,   66.1, -999.0
28-06-2022, 00:01:18,    191,    0.0,    9.2,   0.00,   0.00, 1015.2,   66.3, -999.0
28-06-2022, 00:01:29,    192,    0.0,    9.2,   0.00,   0.00, 1015.2,   66.2, -999.0
28-06-2022, 00:01:38,    191,    0.0,    9.2,   0.00,   0.00, 1015.2,   66.2, -999.0
28-06-2022, 00:01:48,    191,    0.0,    9.3,   0.00,   0.00, 1015.2,   66.2, -999.0
28-06-2022, 00:01:59,    192,    0.0,    9.2,   0.00,   0.00, 1015.2,   66.2, -999.0
28-06-2022, 00:02:08,    191,    0.0,    9.3,   0.00,   0.00, 1015.2,   66.3, -999.0
28-06-2022, 00:02:18,    191,    0.0,    9.2,   0.00,   0.00, 1015.2,   66.2, -999.0
28-06-2022, 00:02:28,    191,    0.0,    9.1,   0.00,   0.00, 1015.2,   66.2, -999.0
28-06-2022, 00:02:38,    191,    0.0,    9.3,   0.00,   0.00, 1015.2,   66.2, -999.0
28-06-2022, 00:02:48,    191,    0.0,    9.2,   0.00,   0.00, 1015.2,   66.1, -999.0
28-06-2022, 00:02:58,    191,    0.0,    9.2,   0.00,   0.00, 1015.2,   66.1, -999.0
28-06-2022, 00:03:08,    191,    0.0,    9.3,   0.00,   0.00, 1015.2,   66.1, -999.0
28-06-2022, 00:03:18,    191,    0.0,    9.2,   0.00,   0.00, 1015.2,   66.2, -999.0
28-06-2022, 00:03:28,    192,    0.0,    9.2,   0.00,   0.00, 1015.2,   66.1, -999.0
28-06-2022, 00:03:38,    191,    0.0,    9.2,   0.00,   0.00, 1015.2,   66.3, -999.0
28-06-2022, 00:03:47,    191,    0.0,    9.3,   0.00,   0.00, 1015.2,   66.2, -999.0
28-06-2022, 00:03:58,    191,    0.0,    9.2,   0.00,   0.00, 1015.2,   66.1, -999.0
28-06-2022, 00:04:08,    191,    0.0,    9.2,   0.00,   0.00, 1015.1,   66.2, -999.0
28-06-2022, 00:04:17,    191,    0.0,    9.3,   0.00,   0.00, 1015.2,   66.2, -999.0
28-06-2022, 00:04:28,    192,    0.0,    9.3,   0.00,   0.00, 1015.2,   66.3, -999.0
28-06-2022, 00:04:38,    191,    0.0,    9.3,   0.00,   0.00, 1015.2,   66.3, -999.0
28-06-2022, 00:04:47,    191,    0.0,    9.3,   0.00,   0.00, 1015.2,   66.2, -999.0
28-06-2022, 00:04:57,    192,    0.0,    9.2,   0.00,   0.00, 1015.2,   66.3, -999.0
28-06-2022, 00:05:08,    191,    0.0,    9.3,   0.00,   0.00, 1015.2,   66.3, -999.0
28-06-2022, 00:05:17,    191,    0.0,    9.3,   0.00,   0.00, 1015.2,   66.3, -999.0
28-06-2022, 00:05:27,    191,    0.0,    9.3,   0.00,   0.00, 1015.2,   66.2, -999.0
28-06-2022, 00:05:37,    191,    0.0,    9.3,   0.00,   0.00, 1015.1,   66.3, -999.0
28-06-2022, 00:05:47,    191,    0.0,    9.2,   0.00,   0.00, 1015.2,   66.2, -999.0
28-06-2022, 00:05:57,    191,    0.0,    9.3,   0.00,   0.00, 1015.2,   66.3, -999.0
28-06-2022, 00:06:07,    191,    0.0,    9.3,   0.00,   0.00, 1015.2,   66.2, -999.0
28-06-2022, 00:06:17,    191,    0.0,    9.3,   0.00,   0.00, 1015.2,   66.3, -999.0
28-06-2022, 00:06:27,    191,    0.0,    9.3,   0.00,   0.00, 1015.2,   66.2, -999.0
28-06-2022, 00:06:37,    191,    0.0,    9.4,   0.00,   0.00, 1015.2,   66.3, -999.0
28-06-2022, 00:06:47,    191,    0.0,    9.3,   0.00,   0.00, 1015.1,   66.3, -999.0
28-06-2022, 00:06:57,    191,    0.0,    9.3,   0.00,   0.00, 1015.1,   66.2, -999.0
28-06-2022, 00:07:07,    192,    0.0,    9.3,   0.00,   0.00, 1015.2,   66.3, -999.0
28-06-2022, 00:07:17,    191,    0.0,    9.3,   0.00,   0.00, 1015.1,   66.3, -999.0
28-06-2022, 00:07:26,    191,    0.0,    9.3,   0.00,   0.00, 1015.2,   66.2, -999.0
28-06-2022, 00:07:37,    191,    0.0,    9.4,   0.00,   0.00, 1015.2,   66.2, -999.0
28-06-2022, 00:07:47,    191,    0.0,    9.4,   0.00,   0.00, 1015.2,   66.3, -999.0
28-06-2022, 00:07:56,    191,    0.0,    9.5,   0.00,   0.00, 1015.2,   66.3, -999.0
28-06-2022, 00:08:06,    191,    0.0,    9.5,   0.00,   0.00, 1015.1,   66.2, -999.0
28-06-2022, 00:08:17,    191,    0.0,    9.5,   0.00,   0.00, 1015.1,   66.1, -999.0
28-06-2022, 00:08:26,    191,    0.0,    9.4,   0.00,   0.00, 1015.1,   66.1, -999.0
28-06-2022, 00:08:36,    191,    0.0,    9.5,   0.00,   0.00, 1015.1,   65.9, -999.0
28-06-2022, 00:08:46,    191,    0.0,    9.4,   0.00,   0.00, 1015.1,   65.9, -999.0
28-06-2022, 00:08:56,    192,    0.0,    9.5,   0.00,   0.00, 1015.1,   65.9, -999.0
28-06-2022, 00:09:06,    191,    0.0,    9.5,   0.00,   0.00, 1015.1,   66.0, -999.0
28-06-2022, 00:09:16,    192,    0.0,    9.4,   0.00,   0.00, 1015.1,   65.9, -999.0
28-06-2022, 00:09:26,    192,    0.0,    9.4,   0.00,   0.00, 1015.1,   65.9, -999.0
28-06-2022, 00:09:36,    192,    0.0,    9.3,   0.00,   0.00, 1015.1,   66.0, -999.0
28-06-2022, 00:09:46,    191,    0.0,    9.4,   0.00,   0.00, 1015.1,   65.9, -999.0
28-06-2022, 00:09:56,    191,    0.0,    9.4,   0.00,   0.00, 1015.1,   65.9, -999.0
28-06-2022, 00:10:06,    191,    0.0,    9.4,   0.00,   0.00, 1015.1,   65.8, -999.0
28-06-2022, 00:10:16,    191,    0.0,    9.4,   0.00,   0.00, 1015.1,   65.9, -999.0
28-06-2022, 00:10:26,    191,    0.0,    9.4,   0.00,   0.00, 1015.1,   65.9, -999.0
28-06-2022, 00:10:35,    191,    0.0,    9.3,   0.00,   0.00, 1015.1,   65.9, -999.0
28-06-2022, 00:10:46,    192,    0.0,    9.4,   0.00,   0.00, 1015.1,   66.0, -999.0
28-06-2022, 00:10:56,    191,    0.0,    9.4,   0.00,   0.00, 1015.1,   66.0, -999.0
28-06-2022, 00:11:05,    191,    0.0,    9.4,   0.00,   0.00, 1015.1,   66.0, -999.0
28-06-2022, 00:11:16,    191,    0.0,    9.3,   0.00,   0.00, 1015.1,   66.0, -999.0
28-06-2022, 00:11:26,    192,    0.5,    9.4,   0.00,   0.00, 1015.2,   66.3, -999.0
28-06-2022, 00:11:35,    192,    0.5,    9.5,   0.00,   0.00, 1015.2,   66.5, -999.0
28-06-2022, 00:11:45,    191,    0.0,    9.4,   0.00,   0.00, 1015.2,   66.1, -999.0
28-06-2022, 00:11:55,    191,    0.0,    9.4,   0.00,   0.00, 1015.1,   66.0, -999.0
28-06-2022, 00:12:05,    191,    0.0,    9.3,   0.00,   0.00, 1015.1,   66.1, -999.0
28-06-2022, 00:12:15,    191,    0.0,    9.3,   0.00,   0.00, 1015.1,   66.1, -999.0
28-06-2022, 00:12:25,    191,    0.0,    9.4,   0.00,   0.00, 1015.1,   66.2, -999.0
28-06-2022, 00:12:35,    191,    0.0,    9.4,   0.00,   0.00, 1015.1,   66.1, -999.0
28-06-2022, 00:12:45,    191,    0.0,    9.4,   0.00,   0.00, 1015.1,   66.2, -999.0
28-06-2022, 00:12:55,    191,    0.0,    9.4,   0.00,   0.00, 1015.1,   66.2, -999.0
28-06-2022, 00:13:05,    191,    0.0,    9.4,   0.00,   0.00, 1015.1,   66.1, -999.0
28-06-2022, 00:13:15,    191,    0.4,    9.4,   0.00,   0.00, 1015.2,   66.4, -999.0
28-06-2022, 00:13:25,    191,    0.2,    9.3,   0.00,   0.00, 1015.2,   66.3, -999.0
28-06-2022, 00:13:35,    191,    0.0,    9.3,   0.00,   0.00, 1015.1,   66.2, -999.0
28-06-2022, 00:13:45,    191,    0.0,    9.4,   0.00,   0.00, 1015.1,   66.1, -999.0
28-06-2022, 00:13:55,    191,    0.2,    9.4,   0.00,   0.00, 1015.2,   66.5, -999.0
28-06-2022, 00:14:05,    191,    0.0,    9.4,   0.00,   0.00, 1015.1,   66.3, -999.0
28-06-2022, 00:14:14,    190,    0.0,    9.4,   0.00,   0.00, 1015.1,   66.3, -999.0
28-06-2022, 00:14:25,    190,    0.0,    9.5,   0.00,   0.00, 1015.1,   66.3, -999.0
28-06-2022, 00:14:35,    191,    0.0,    9.5,   0.00,   0.00, 1015.1,   66.4, -999.0
28-06-2022, 00:14:44,    191,    0.0,    9.4,   0.00,   0.00, 1015.1,   66.3, -999.0
28-06-2022, 00:14:54,    190,    0.0,    9.6,   0.00,   0.00, 1015.1,   66.3, -999.0
28-06-2022, 00:15:04,    191,    0.0,    9.3,   0.00,   0.00, 1015.1,   66.2, -999.0
28-06-2022, 00:15:14,    191,    0.0,    9.3,   0.00,   0.00, 1015.1,   66.2, -999.0
28-06-2022, 00:15:24,    191,    0.0,    9.5,   0.00,   0.00, 1015.1,   66.2, -999.0
28-06-2022, 00:15:34,    191,    0.0,    9.5,   0.00,   0.00, 1015.1,   66.1, -999.0
28-06-2022, 00:15:44,    191,    0.1,    9.5,   0.00,   0.00, 1015.2,   66.4, -999.0
28-06-2022, 00:15:54,    190,    0.1,    9.5,   0.00,   0.00, 1015.2,   66.4, -999.0
28-06-2022, 00:16:04,    191,    0.0,    9.4,   0.00,   0.00, 1015.1,   66.1, -999.0
28-06-2022, 00:16:14,    191,    0.0,    9.4,   0.00,   0.00, 1015.1,   66.0, -999.0
28-06-2022, 00:16:24,    191,    0.0,    9.4,   0.00,   0.00, 1015.1,   66.2, -999.0
28-06-2022, 00:16:34,    190,    0.0,    9.4,   0.00,   0.00, 1015.1,   66.1, -999.0
28-06-2022, 00:16:44,    191,    0.0,    9.3,   0.00,   0.00, 1015.1,   66.1, -999.0
28-06-2022, 00:16:54,    191,    0.0,    9.3,   0.00,   0.00, 1015.1,   66.1, -999.0
28-06-2022, 00:17:04,    191,    0.3,    9.4,   0.00,   0.00, 1015.2,   66.7, -999.0
28-06-2022, 00:17:14,    191,    0.1,    9.4,   0.00,   0.00, 1015.2,   66.4, -999.0
28-06-2022, 00:17:23,    191,    0.0,    9.4,   0.00,   0.00, 1015.1,   66.2, -999.0
28-06-2022, 00:17:34,    191,    0.1,    9.4,   0.00,   0.00, 1015.1,   66.4, -999.0
28-06-2022, 00:17:44,    190,    0.0,    9.4,   0.00,   0.00, 1015.1,   66.3, -999.0
28-06-2022, 00:17:53,    190,    0.2,    9.4,   0.00,   0.00, 1015.2,   66.6, -999.0
28-06-2022, 00:18:03,    189,    0.9,    9.5,   0.00,   0.00, 1015.3,   66.9, -999.0
28-06-2022, 00:18:14,    188,    0.4,    9.5,   0.00,   0.00, 1015.2,   66.6, -999.0
28-06-2022, 00:18:23,    188,    0.0,    9.5,   0.00,   0.00, 1015.2,   66.5, -999.0
28-06-2022, 00:18:33,    188,    0.0,    9.5,   0.00,   0.00, 1015.1,   66.3, -999.0
28-06-2022, 00:18:43,    188,    0.0,    9.5,   0.00,   0.00, 1015.1,   66.2, -999.0
28-06-2022, 00:18:53,    188,    0.2,    9.5,   0.00,   0.00, 1015.2,   66.4, -999.0
28-06-2022, 00:19:03,    184,    0.3,    9.5,   0.00,   0.00, 1015.2,   66.4, -999.0
28-06-2022, 00:19:13,    184,    0.1,    9.6,   0.00,   0.00, 1015.2,   66.3, -999.0
28-06-2022, 00:19:23,    184,    0.0,    9.5,   0.00,   0.00, 1015.1,   66.2, -999.0
28-06-2022, 00:19:33,    184,    0.0,    9.4,   0.00,   0.00, 1015.1,   66.1, -999.0
28-06-2022, 00:19:43,    184,    0.0,    9.5,   0.00,   0.00, 1015.2,   66.1, -999.0
28-06-2022, 00:19:53,    184,    0.0,    9.6,   0.00,   0.00, 1015.2,   65.9, -999.0
28-06-2022, 00:20:03,    184,    0.0,    9.3,   0.00,   0.00, 1015.1,   65.7, -999.0
28-06-2022, 00:20:13,    183,    0.2,    9.4,   0.00,   0.00, 1015.2,   66.2, -999.0
28-06-2022, 00:20:23,    184,    0.0,    9.3,   0.00,   0.00, 1015.1,   66.0, -999.0
28-06-2022, 00:20:33,    184,    0.0,    9.3,   0.00,   0.00, 1015.1,   66.0, -999.0
28-06-2022, 00:20:43,    184,    0.0,    9.3,   0.00,   0.00, 1015.2,   66.1, -999.0
28-06-2022, 00:20:53,    183,    0.6,    9.3,   0.00,   0.00, 1015.2,   66.6, -999.0
28-06-2022, 00:21:02,    184,    0.0,    9.3,   0.00,   0.00, 1015.1,   66.1, -999.0
28-06-2022, 00:21:13,    184,    0.0,    9.2,   0.00,   0.00, 1015.1,   66.2, -999.0
28-06-2022, 00:21:23,    184,    0.0,    9.1,   0.00,   0.00, 1015.1,   66.2, -999.0
28-06-2022, 00:21:32,    184,    0.0,    9.2,   0.00,   0.00, 1015.2,   66.4, -999.0
28-06-2022, 00:21:42,    184,    0.0,    9.2,   0.00,   0.00, 1015.2,   66.6, -999.0
28-06-2022, 00:21:52,    184,    0.2,    9.3,   0.00,   0.00, 1015.2,   66.8, -999.0
28-06-2022, 00:22:02,    184,    0.7,    9.3,   0.00,   0.00, 1015.2,   67.0, -999.0
28-06-2022, 00:22:12,    184,    0.0,    9.3,   0.00,   0.00, 1015.1,   66.5, -999.0
28-06-2022, 00:22:22,    183,    0.1,    9.2,   0.00,   0.00, 1015.2,   66.6, -999.0
28-06-2022, 00:22:32,    183,    0.0,    9.2,   0.00,   0.00, 1015.1,   66.5, -999.0
28-06-2022, 00:22:42,    183,    0.0,    9.3,   0.00,   0.00, 1015.1,   66.6, -999.0
28-06-2022, 00:22:52,    184,    0.0,    9.3,   0.00,   0.00, 1015.2,   66.7, -999.0
28-06-2022, 00:23:02,    183,    0.9,    9.4,   0.00,   0.00, 1015.3,   66.8, -999.0
28-06-2022, 00:23:12,    184,    0.8,    9.3,   0.00,   0.00, 1015.2,   66.7, -999.0
28-06-2022, 00:23:22,    184,    1.1,    9.3,   0.00,   0.00, 1015.3,   66.6, -999.0
28-06-2022, 00:23:32,    183,    0.3,    9.2,   0.00,   0.00, 1015.2,   66.4, -999.0
28-06-2022, 00:23:42,    183,    0.2,    9.2,   0.00,   0.00, 1015.2,   66.6, -999.0
28-06-2022, 00:23:52,    182,    0.4,    9.2,   0.00,   0.00, 1015.2,   66.6, -999.0
28-06-2022, 00:24:02,    183,    0.0,    9.1,   0.00,   0.00, 1015.2,   66.4, -999.0
28-06-2022, 00:24:11,    185,    0.0,    9.1,   0.00,   0.00, 1015.1,   66.5, -999.0
28-06-2022, 00:24:22,    183,    0.0,    9.1,   0.00,   0.00, 1015.1,   66.7, -999.0
28-06-2022, 00:24:32,    183,    0.0,    9.2,   0.00,   0.00, 1015.1,   66.6, -999.0
28-06-2022, 00:24:41,    176,    0.2,    9.2,   0.00,   0.00, 1015.2,   66.8, -999.0
28-06-2022, 00:24:51,    176,    0.2,    9.3,   0.00,   0.00, 1015.2,   66.9, -999.0
28-06-2022, 00:25:01,    176,    0.0,    9.3,   0.00,   0.00, 1015.1,   66.6, -999.0
28-06-2022, 00:25:11,    176,    0.0,    9.2,   0.00,   0.00, 1015.1,   66.7, -999.0
28-06-2022, 00:25:21,    175,    0.0,    9.2,   0.00,   0.00, 1015.1,   66.7, -999.0
28-06-2022, 00:25:31,    176,    0.2,    9.3,   0.00,   0.00, 1015.2,   66.8, -999.0
28-06-2022, 00:25:41,    176,    0.4,    9.3,   0.00,   0.00, 1015.2,   66.7, -999.0
28-06-2022, 00:25:51,    176,    0.0,    9.3,   0.00,   0.00, 1015.1,   66.3, -999.0
28-06-2022, 00:26:01,    176,    0.0,    9.3,   0.00,   0.00, 1015.1,   66.3, -999.0
28-06-2022, 00:26:11,    175,    0.0,    9.3,   0.00,   0.00, 1015.1,   66.3, -999.0
28-06-2022, 00:26:21,    175,    0.0,    9.3,   0.00,   0.00, 1015.1,   66.3, -999.0
28-06-2022, 00:26:31,    175,    0.0,    9.3,   0.00,   0.00, 1015.1,   66.4, -999.0
28-06-2022, 00:26:41,    176,    0.0,    9.3,   0.00,   0.00, 1015.1,   66.4, -999.0
28-06-2022, 00:26:51,    176,    0.0,    9.3,   0.00,   0.00, 1015.1,   66.4, -999.0
28-06-2022, 00:27:01,    175,    0.0,    9.4,   0.00,   0.00, 1015.1,   66.5, -999.0
28-06-2022, 00:27:11,    176,    0.0,    9.4,   0.00,   0.00, 1015.1,   66.5, -999.0
28-06-2022, 00:27:21,    175,    0.0,    9.3,   0.00,   0.00, 1015.1,   66.3, -999.0
28-06-2022, 00:27:31,    175,    0.0,    9.2,   0.00,   0.00, 1015.1,   66.1, -999.0
28-06-2022, 00:27:41,    175,    0.0,    9.2,   0.00,   0.00, 1015.1,   66.2, -999.0
28-06-2022, 00:27:50,    175,    0.0,    9.3,   0.00,   0.00, 1015.2,   66.3, -999.0
28-06-2022, 00:28:01,    175,    0.0,    9.3,   0.00,   0.00, 1015.1,   66.2, -999.0
28-06-2022, 00:28:10,    175,    0.0,    9.1,   0.00,   0.00, 1015.1,   66.2, -999.0
28-06-2022, 00:28:20,    176,    0.0,    9.2,   0.00,   0.00, 1015.2,   66.3, -999.0
28-06-2022, 00:28:30,    176,    0.0,    9.2,   0.00,   0.00, 1015.1,   66.3, -999.0
28-06-2022, 00:28:40,    175,    0.0,    9.2,   0.00,   0.00, 1015.1,   66.2, -999.0
28-06-2022, 00:28:50,    175,    0.0,    9.2,   0.00,   0.00, 1015.1,   66.2, -999.0
28-06-2022, 00:29:00,    175,    0.0,    9.1,   0.00,   0.00, 1015.1,   66.3, -999.0
28-06-2022, 00:29:10,    175,    0.0,    9.0,   0.00,   0.00, 1015.1,   66.3, -999.0
28-06-2022, 00:29:20,    175,    0.0,    9.1,   0.00,   0.00, 1015.1,   66.3, -999.0
28-06-2022, 00:29:30,    175,    0.0,    9.2,   0.00,   0.00, 1015.1,   66.3, -999.0
28-06-2022, 00:29:40,    175,    0.0,    9.1,   0.00,   0.00, 1015.1,   66.3, -999.0
28-06-2022, 00:29:50,    175,    0.0,    9.1,   0.00,   0.00, 1015.1,   66.4, -999.0
28-06-2022, 00:30:00,    175,    0.0,    9.1,   0.00,   0.00, 1015.1,   66.5, -999.0
28-06-2022, 00:30:10,    176,    0.0,    9.1,   0.00,   0.00, 1015.1,   66.4, -999.0
28-06-2022, 00:30:20,    175,    0.0,    9.1,   0.00,   0.00, 1015.1,   66.4, -999.0
28-06-2022, 00:30:30,    175,    0.0,    9.2,   0.00,   0.00, 1015.1,   66.4, -999.0
28-06-2022, 00:30:40,    175,    0.0,    9.1,   0.00,   0.00, 1015.1,   66.4, -999.0
28-06-2022, 00:30:50,    175,    0.0,    9.1,   0.00,   0.00, 1015.1,   66.5, -999.0
28-06-2022, 00:30:59,    175,    0.0,    9.1,   0.00,   0.00, 1015.1,   66.6, -999.0
28-06-2022, 00:31:10,    175,    0.0,    9.2,   0.00,   0.00, 1015.1,   66.7, -999.0
28-06-2022, 00:31:20,    177,    0.0,    9.2,   0.00,   0.00, 1015.1,   66.7, -999.0
28-06-2022, 00:31:29,    175,    0.0,    9.2,   0.00,   0.00, 1015.1,   66.8, -999.0
28-06-2022, 00:31:39,    175,    0.0,    9.2,   0.00,   0.00, 1015.1,   66.8, -999.0
28-06-2022, 00:31:49,    175,    0.0,    9.2,   0.00,   0.00, 1015.1,   66.6, -999.0
28-06-2022, 00:31:59,    176,    0.0,    9.2,   0.00,   0.00, 1015.1,   66.7, -999.0
28-06-2022, 00:32:09,    175,    0.0,    9.2,   0.00,   0.00, 1015.1,   66.7, -999.0
28-06-2022, 00:32:19,    175,    0.0,    9.3,   0.00,   0.00, 1015.1,   66.7, -999.0
28-06-2022, 00:32:29,    175,    0.0,    9.3,   0.00,   0.00, 1015.1,   66.5, -999.0
28-06-2022, 00:32:39,    176,    0.0,    9.2,   0.00,   0.00, 1015.1,   66.5, -999.0
28-06-2022, 00:32:49,    175,    0.0,    9.1,   0.00,   0.00, 1015.1,   66.4, -999.0
28-06-2022, 00:32:59,    175,    0.0,    9.2,   0.00,   0.00, 1015.1,   66.5, -999.0
28-06-2022, 00:33:09,    175,    0.0,    9.1,   0.00,   0.00, 1015.1,   66.5, -999.0
28-06-2022, 00:33:19,    175,    0.0,    9.2,   0.00,   0.00, 1015.1,   66.4, -999.0
28-06-2022, 00:33:29,    175,    0.0,    9.2,   0.00,   0.00, 1015.1,   66.4, -999.0
28-06-2022, 00:33:39,    175,    0.0,    9.1,   0.00,   0.00, 1015.1,   66.4, -999.0
28-06-2022, 00:33:49,    176,    0.0,    9.1,   0.00,   0.00, 1015.1,   66.5, -999.0
28-06-2022, 00:33:59,    176,    0.0,    9.1,   0.00,   0.00, 1015.1,   66.5, -999.0
28-06-2022, 00:34:08,    175,    0.0,    9.1,   0.00,   0.00, 1015.1,   66.7, -999.0
28-06-2022, 00:34:19,    175,    0.0,    9.1,   0.00,   0.00, 1015.1,   66.7, -999.0
28-06-2022, 00:34:29,    176,    0.0,    9.0,   0.00,   0.00, 1015.1,   66.7, -999.0
28-06-2022, 00:34:38,    175,    0.0,    9.1,   0.00,   0.00, 1015.1,   66.7, -999.0
28-06-2022, 00:34:49,    176,    0.0,    9.2,   0.00,   0.00, 1015.1,   66.8, -999.0
28-06-2022, 00:34:58,    175,    0.0,    9.2,   0.00,   0.00, 1015.1,   66.9, -999.0
28-06-2022, 00:35:08,    176,    0.0,    9.2,   0.00,   0.00, 1015.1,   66.9, -999.0
28-06-2022, 00:35:18,    175,    0.0,    9.2,   0.00,   0.00, 1015.1,   66.8, -999.0
28-06-2022, 00:35:28,    175,    0.0,    9.2,   0.00,   0.00, 1015.1,   66.9, -999.0
28-06-2022, 00:35:38,    175,    0.0,    9.2,   0.00,   0.00, 1015.1,   66.8, -999.0
28-06-2022, 00:35:48,    175,    0.0,    9.3,   0.00,   0.00, 1015.1,   66.7, -999.0
28-06-2022, 00:35:58,    175,    0.0,    9.3,   0.00,   0.00, 1015.1,   66.6, -999.0
28-06-2022, 00:36:08,    175,    0.0,    9.2,   0.00,   0.00, 1015.1,   66.7, -999.0
28-06-2022, 00:36:18,    175,    0.0,    9.2,   0.00,   0.00, 1015.1,   66.7, -999.0
28-06-2022, 00:36:28,    175,    0.0,    9.3,   0.00,   0.00, 1015.1,   66.7, -999.0
28-06-2022, 00:36:38,    175,    0.0,    9.2,   0.00,   0.00, 1015.1,   66.7, -999.0
28-06-2022, 00:36:48,    175,    0.0,    9.2,   0.00,   0.00, 1015.1,   66.7, -999.0
28-06-2022, 00:36:58,    175,    0.2,    9.2,   0.00,   0.00, 1015.1,   66.9, -999.0
28-06-2022, 00:37:08,    175,    0.0,    9.1,   0.00,   0.00, 1015.1,   66.6, -999.0
28-06-2022, 00:37:18,    175,    0.3,    9.3,   0.00,   0.00, 1015.2,   67.1, -999.0
28-06-2022, 00:37:28,    176,    0.5,    9.3,   0.00,   0.00, 1015.2,   67.0, -999.0
28-06-2022, 00:37:38,    176,    0.8,    9.4,   0.00,   0.00, 1015.2,   67.1, -999.0
28-06-2022, 00:37:47,    175,    0.4,    9.4,   0.00,   0.00, 1015.2,   67.0, -999.0
28-06-2022, 00:37:58,    175,    0.0,    9.3,   0.00,   0.00, 1015.1,   66.7, -999.0
28-06-2022, 00:38:07,    175,    0.0,    9.3,   0.00,   0.00, 1015.1,   66.6, -999.0
28-06-2022, 00:38:17,    175,    0.0,    9.3,   0.00,   0.00, 1015.1,   66.6, -999.0
28-06-2022, 00:38:27,    175,    0.0,    9.3,   0.00,   0.00, 1015.1,   66.6, -999.0
28-06-2022, 00:38:37,    175,    0.0,    9.3,   0.00,   0.00, 1015.1,   66.5, -999.0
28-06-2022, 00:38:47,    175,    0.0,    9.2,   0.00,   0.00, 1015.1,   66.5, -999.0
28-06-2022, 00:38:57,    175,    0.0,    9.3,   0.00,   0.00, 1015.1,   66.4, -999.0
28-06-2022, 00:39:07,    175,    0.0,    9.3,   0.00,   0.00, 1015.1,   66.5, -999.0
28-06-2022, 00:39:17,    175,    0.0,    9.3,   0.00,   0.00, 1015.1,   66.6, -999.0
28-06-2022, 00:39:27,    175,    0.0,    9.3,   0.00,   0.00, 1015.1,   66.6, -999.0
28-06-2022, 00:39:37,    175,    0.0,    9.4,   0.00,   0.00, 1015.1,   66.4, -999.0
28-06-2022, 00:39:47,    175,    0.0,    9.4,   0.00,   0.00, 1015.1,   66.4, -999.0
28-06-2022, 00:39:57,    175,    0.0,    9.3,   0.00,   0.00, 1015.1,   66.3, -999.0
28-06-2022, 00:40:07,    175,    0.0,    9.3,   0.00,   0.00, 1015.1,   66.3, -999.0
28-06-2022, 00:40:17,    175,    0.0,    9.3,   0.00,   0.00, 1015.1,   66.2, -999.0
28-06-2022, 00:40:27,    175,    0.0,    9.3,   0.00,   0.00, 1015.1,   66.3, -999.0
28-06-2022, 00:40:37,    175,    0.0,    9.3,   0.00,   0.00, 1015.1,   66.2, -999.0
28-06-2022, 00:40:47,    176,    0.0,    9.3,   0.00,   0.00, 1015.1,   66.3, -999.0
28-06-2022, 00:40:57,    175,    0.0,    9.3,   0.00,   0.00, 1015.1,   66.3, -999.0
28-06-2022, 00:41:07,    175,    0.0,    9.3,   0.00,   0.00, 1015.1,   66.3, -999.0
28-06-2022, 00:41:16,    176,    0.0,    9.2,   0.00,   0.00, 1015.1,   66.3, -999.0
28-06-2022, 00:41:26,    175,    0.0,    9.3,   0.00,   0.00, 1015.1,   66.4, -999.0
28-06-2022, 00:41:37,    175,    0.0,    9.3,   0.00,   0.00, 1015.1,   66.4, -999.0
28-06-2022, 00:41:46,    175,    0.0,    9.2,   0.00,   0.00, 1015.1,   66.5, -999.0
28-06-2022, 00:41:56,    175,    0.0,    9.3,   0.00,   0.00, 1015.1,   66.4, -999.0
28-06-2022, 00:42:06,    175,    0.0,    9.2,   0.00,   0.00, 1015.1,   66.5, -999.0
28-06-2022, 00:42:16,    175,    0.0,    9.2,   0.00,   0.00, 1015.1,   66.4, -999.0
28-06-2022, 00:42:26,    175,    0.0,    9.2,   0.00,   0.00, 1015.1,   66.4, -999.0
28-06-2022, 00:42:36,    175,    0.0,    9.2,   0.00,   0.00, 1015.1,   66.5, -999.0
28-06-2022, 00:42:46,    175,    0.0,    9.2,   0.00,   0.00, 1015.1,   66.5, -999.0
28-06-2022, 00:42:56,    175,    0.0,    9.2,   0.00,   0.00, 1015.1,   66.6, -999.0
28-06-2022, 00:43:06,    175,    0.0,    9.3,   0.00,   0.00, 1015.1,   66.5, -999.0
28-06-2022, 00:43:16,    175,    0.4,    9.3,   0.00,   0.00, 1015.2,   66.8, -999.0
28-06-2022, 00:43:26,    175,    0.1,    9.3,   0.00,   0.00, 1015.2,   66.7, -999.0
28-06-2022, 00:43:36,    174,    0.0,    9.2,   0.00,   0.00, 1015.1,   66.5, -999.0
28-06-2022, 00:43:46,    175,    0.0,    9.2,   0.00,   0.00, 1015.2,   66.4, -999.0
28-06-2022, 00:43:56,    175,    0.0,    9.2,   0.00,   0.00, 1015.1,   66.5, -999.0
28-06-2022, 00:44:06,    175,    0.0,    9.2,   0.00,   0.00, 1015.2,   66.4, -999.0
28-06-2022, 00:44:16,    175,    0.0,    9.2,   0.00,   0.00, 1015.2,   66.5, -999.0
28-06-2022, 00:44:25,    175,    0.0,    9.2,   0.00,   0.00, 1015.2,   66.5, -999.0
28-06-2022, 00:44:35,    175,    0.0,    9.1,   0.00,   0.00, 1015.2,   66.6, -999.0
28-06-2022, 00:44:46,    175,    0.0,    9.1,   0.00,   0.00, 1015.1,   66.4, -999.0
28-06-2022, 00:44:55,    175,    0.0,    9.1,   0.00,   0.00, 1015.1,   66.4, -999.0
28-06-2022, 00:45:05,    176,    0.0,    9.2,   0.00,   0.00, 1015.2,   66.5, -999.0
28-06-2022, 00:45:15,    175,    0.0,    9.2,   0.00,   0.00, 1015.1,   66.5, -999.0
28-06-2022, 00:45:25,    175,    0.0,    9.1,   0.00,   0.00, 1015.1,   66.5, -999.0
28-06-2022, 00:45:35,    175,    0.0,    9.1,   0.00,   0.00, 1015.2,   66.6, -999.0
28-06-2022, 00:45:45,    175,    0.2,    9.1,   0.00,   0.00, 1015.2,   66.7, -999.0
28-06-2022, 00:45:55,    175,    0.1,    9.1,   0.00,   0.00, 1015.2,   66.7, -999.0
28-06-2022, 00:46:05,    175,    0.0,    9.1,   0.00,   0.00, 1015.2,   66.7, -999.0
28-06-2022, 00:46:15,    175,    0.0,    9.1,   0.00,   0.00, 1015.2,   66.6, -999.0
28-06-2022, 00:46:25,    175,    0.0,    9.0,   0.00,   0.00, 1015.2,   66.7, -999.0
28-06-2022, 00:46:35,    175,    0.0,    9.1,   0.00,   0.00, 1015.2,   66.6, -999.0
28-06-2022, 00:46:45,    175,    0.0,    9.0,   0.00,   0.00, 1015.2,   66.7, -999.0